Location: Betz
(49.1556°N, 2.9558°E)
Time: 16:43:12
(UTC+00:00)

Meteor 1-21 Rocket - Pass Details

Date: 18 September 2019
Orbit: 834 x 907 km, 81.2° (Epoch: 13 October)

Event Time Altitude Azimuth Distance (km) Brightness Sun altitude
Rises 20:57:25 0° 349° (N) 3,516 8.2 -28.0°
Reaches altitude 10° 20:59:54 10° 351° (N) 2,581 7.3 -28.3°
Enters shadow 21:05:17 68° 39° (NE) 974 4.4 -28.9°
